Rechercher aéroport 
image banner adimage banner adimage banner ad
image banner ad

05CL - Pope Valley

Situé à Pope Valley, United States

ICAO - 05CL, IATA -

Données fournies par Airmate  

Information générale

Coordonnées: N38°36'39" W122°23'29"
Élévation : 618 feet MSL.
Variation magnétique : 16° East
Voir autres Aéroports à California

Données opérationnelles

Special qualification required
Heure actuelle UTC:
Heure actuelle locale:
METAR: KSTS 020653Z AUTO 00000KT 10SM CLR 13/11 A3010 RMK AO2 SLP187 T01280106
TAF: KSTS 020535Z 0206/0306 VRB04KT P6SM SKC FM020900 00000KT P6SM OVC007 FM021600 VRB04KT P6SM BKN012 FM021730 VRB04KT P6SM FEW012 FM030400 VRB05KT P6SM FEW007
Voir NOTAMs / SUP AIP / TFR affectant cet aéroport [VIEW]
Fréquences de communication: [VIEW]

Pistes:

Identifiant RWYQFULongueur (ft)Largeur (ft)SurfaceLDA (ft)
10370060ASPH
28370060ASPH

Coordonnées de l'aéroport

Adresse: Pope Valley United States

Vue satellite de 05CL